TimeAKDT,TemperatureF,Dew PointF,Humidity,Sea Level PressureIn,VisibilityMPH,Wind Direction,Wind SpeedMPH,Gust SpeedMPH,PrecipitationIn,Events,Conditions,WindDirDegrees,DateUTC
12:16 AM,64.4,59.0,83,30.12,10.0,Calm,Calm,-,N/A,,Overcast,0,2013-07-18 08:16:00
12:36 AM,60.8,57.2,88,30.12,10.0,Calm,Calm,-,N/A,,Overcast,0,2013-07-18 08:36:00
12:56 AM,62.6,57.2,82,30.13,10.0,Calm,Calm,-,N/A,,Overcast,0,2013-07-18 08:56:00
1:16 AM,62.6,57.2,82,30.13,10.0,WSW,3.5,-,N/A,,Overcast,240,2013-07-18 09:16:00
1:36 AM,62.6,55.4,77,30.14,10.0,West,4.6,-,N/A,,Mostly Cloudy,260,2013-07-18 09:36:00
1:56 AM,60.8,55.4,82,30.14,10.0,Calm,Calm,-,N/A,,Overcast,0,2013-07-18 09:56:00
2:16 AM,60.8,55.4,82,30.14,10.0,Calm,Calm,-,N/A,,Scattered Clouds,0,2013-07-18 10:16:00
2:36 AM,60.8,55.4,82,30.13,10.0,Calm,Calm,-,N/A,,Clear,0,2013-07-18 10:36:00
2:56 AM,60.8,55.4,82,30.14,10.0,Calm,Calm,-,N/A,,Scattered Clouds,0,2013-07-18 10:56:00
3:16 AM,60.8,55.4,82,30.15,10.0,Calm,Calm,-,N/A,,Mostly Cloudy,0,2013-07-18 11:16:00
3:36 AM,60.8,55.4,82,30.14,10.0,Calm,Calm,-,N/A,,Partly Cloudy,0,2013-07-18 11:36:00
3:56 AM,60.8,57.2,88,30.15,10.0,Calm,Calm,-,N/A,,Clear,0,2013-07-18 11:56:00
4:16 AM,60.8,55.4,82,30.15,10.0,Calm,Calm,-,N/A,,Clear,0,2013-07-18 12:16:00
4:36 AM,60.8,55.4,82,30.15,10.0,Calm,Calm,-,N/A,,Partly Cloudy,0,2013-07-18 12:36:00
4:56 AM,59.0,55.4,88,30.15,10.0,Calm,Calm,-,N/A,,Clear,0,2013-07-18 12:56:00
5:16 AM,59.0,55.4,88,30.15,10.0,Calm,Calm,-,N/A,,Clear,0,2013-07-18 13:16:00
5:36 AM,59.0,55.4,88,30.15,10.0,Calm,Calm,-,N/A,,Clear,0,2013-07-18 13:36:00
5:56 AM,59.0,55.4,88,30.14,10.0,ENE,3.5,-,N/A,,Clear,70,2013-07-18 13:56:00
6:16 AM,60.8,55.4,82,30.14,10.0,Calm,Calm,-,N/A,,Clear,0,2013-07-18 14:16:00
6:36 AM,60.8,55.4,82,30.14,10.0,Calm,Calm,-,N/A,,Clear,0,2013-07-18 14:36:00
6:56 AM,57.2,55.4,94,30.15,10.0,Calm,Calm,-,N/A,,Mostly Cloudy,0,2013-07-18 14:56:00
7:16 AM,60.8,55.4,82,30.15,10.0,Calm,Calm,-,N/A,,Overcast,0,2013-07-18 15:16:00
7:36 AM,60.8,55.4,82,30.15,10.0,Calm,Calm,-,N/A,,Mostly Cloudy,0,2013-07-18 15:36:00
7:56 AM,60.8,55.4,82,30.15,10.0,Calm,Calm,-,N/A,,Scattered Clouds,0,2013-07-18 15:56:00
8:16 AM,59.0,55.4,88,30.15,10.0,Calm,Calm,-,N/A,,Mostly Cloudy,0,2013-07-18 16:16:00
8:36 AM,60.8,55.4,82,30.15,10.0,Calm,Calm,-,N/A,,Overcast,0,2013-07-18 16:36:00
8:56 AM,62.6,55.4,77,30.16,10.0,Calm,Calm,-,N/A,,Overcast,0,2013-07-18 16:56:00
9:16 AM,62.6,55.4,77,30.16,10.0,NNE,3.5,-,N/A,,Overcast,30,2013-07-18 17:16:00
9:36 AM,62.6,55.4,77,30.16,10.0,NNE,3.5,-,N/A,,Overcast,20,2013-07-18 17:36:00
9:56 AM,64.4,55.4,73,30.16,10.0,NE,5.8,-,N/A,,Mostly Cloudy,40,2013-07-18 17:56:00
10:16 AM,64.4,55.4,73,30.16,10.0,North,4.6,-,N/A,,Mostly Cloudy,350,2013-07-18 18:16:00
10:36 AM,64.4,55.4,73,30.16,10.0,NNE,5.8,-,N/A,,Mostly Cloudy,30,2013-07-18 18:36:00
10:56 AM,64.4,55.4,73,30.16,10.0,NNE,5.8,-,N/A,,Scattered Clouds,30,2013-07-18 18:56:00
11:16 AM,66.2,55.4,68,30.16,10.0,NNE,4.6,-,N/A,,Clear,30,2013-07-18 19:16:00
11:36 AM,66.2,55.4,68,30.16,10.0,NNE,4.6,-,N/A,,Partly Cloudy,20,2013-07-18 19:36:00
11:56 AM,66.2,55.4,68,30.16,10.0,North,5.8,-,N/A,,Mostly Cloudy,10,2013-07-18 19:56:00
12:16 PM,66.2,55.4,68,30.16,10.0,NNE,6.9,-,N/A,,Mostly Cloudy,30,2013-07-18 20:16:00
12:36 PM,68.0,55.4,64,30.15,10.0,NNE,8.1,-,N/A,,Scattered Clouds,30,2013-07-18 20:36:00
12:56 PM,68.0,55.4,64,30.15,10.0,NNE,9.2,-,N/A,,Partly Cloudy,30,2013-07-18 20:56:00
1:16 PM,69.8,55.4,60,30.14,10.0,NNE,8.1,-,N/A,,Clear,20,2013-07-18 21:16:00
1:36 PM,68.0,57.2,68,30.14,10.0,NNE,6.9,-,N/A,,Clear,20,2013-07-18 21:36:00
1:56 PM,69.8,57.2,64,30.15,10.0,North,3.5,-,N/A,,Partly Cloudy,360,2013-07-18 21:56:00
2:16 PM,69.8,57.2,64,30.15,10.0,Calm,Calm,-,N/A,,Mostly Cloudy,0,2013-07-18 22:16:00
2:36 PM,69.8,57.2,64,30.15,10.0,West,4.6,-,N/A,,Overcast,270,2013-07-18 22:36:00
2:56 PM,68.0,57.2,68,30.14,10.0,Calm,Calm,-,N/A,,Overcast,0,2013-07-18 22:56:00
3:16 PM,69.8,57.2,64,30.13,10.0,North,4.6,-,N/A,,Overcast,360,2013-07-18 23:16:00
3:36 PM,69.8,57.2,64,30.13,10.0,NNW,4.6,-,N/A,,Overcast,340,2013-07-18 23:36:00
3:56 PM,69.8,57.2,64,30.13,10.0,NNW,4.6,-,N/A,,Overcast,330,2013-07-18 23:56:00
4:16 PM,69.8,57.2,64,30.13,10.0,Calm,Calm,-,N/A,,Overcast,0,2013-07-19 00:16:00
4:36 PM,69.8,57.2,64,30.13,10.0,Calm,Calm,-,N/A,,Overcast,0,2013-07-19 00:36:00
4:56 PM,69.8,57.2,64,30.13,10.0,Calm,Calm,-,N/A,,Overcast,0,2013-07-19 00:56:00
5:16 PM,69.8,57.2,64,30.12,10.0,Calm,Calm,-,N/A,,Overcast,0,2013-07-19 01:16:00
5:36 PM,71.6,57.2,60,30.12,10.0,Calm,Calm,-,N/A,,Overcast,0,2013-07-19 01:36:00
5:56 PM,69.8,57.2,64,30.11,10.0,North,3.5,-,N/A,,Overcast,360,2013-07-19 01:56:00
6:16 PM,69.8,57.2,64,30.11,10.0,NW,3.5,-,N/A,,Overcast,320,2013-07-19 02:16:00
6:36 PM,68.0,57.2,68,30.11,10.0,West,3.5,-,N/A,,Overcast,280,2013-07-19 02:36:00
6:56 PM,68.0,59.0,73,30.11,10.0,Calm,Calm,-,N/A,,Overcast,0,2013-07-19 02:56:00
7:16 PM,69.8,59.0,68,30.11,10.0,West,3.5,-,N/A,,Overcast,270,2013-07-19 03:16:00
7:36 PM,66.2,59.0,78,30.10,10.0,Calm,Calm,-,N/A,,Overcast,0,2013-07-19 03:36:00
7:56 PM,66.2,57.2,73,30.10,10.0,WSW,4.6,-,N/A,,Mostly Cloudy,250,2013-07-19 03:56:00
8:16 PM,66.2,57.2,73,30.10,10.0,WSW,3.5,-,N/A,,Mostly Cloudy,250,2013-07-19 04:16:00
8:36 PM,66.2,57.2,73,30.10,10.0,Calm,Calm,-,N/A,,Overcast,0,2013-07-19 04:36:00
8:56 PM,68.0,59.0,73,30.10,10.0,Calm,Calm,-,N/A,,Mostly Cloudy,0,2013-07-19 04:56:00
9:16 PM,66.2,57.2,73,30.10,10.0,Calm,Calm,-,N/A,,Scattered Clouds,0,2013-07-19 05:16:00
9:36 PM,66.2,57.2,73,30.10,10.0,Calm,Calm,-,N/A,,Scattered Clouds,0,2013-07-19 05:36:00
9:56 PM,64.4,57.2,77,30.10,10.0,Calm,Calm,-,N/A,,Clear,0,2013-07-19 05:56:00
10:16 PM,66.2,59.0,78,30.10,10.0,NE,3.5,-,N/A,,Scattered Clouds,50,2013-07-19 06:16:00
10:36 PM,66.2,60.8,83,30.10,10.0,Calm,Calm,-,N/A,,Mostly Cloudy,0,2013-07-19 06:36:00
10:56 PM,66.2,60.8,83,30.11,10.0,Calm,Calm,-,N/A,,Partly Cloudy,0,2013-07-19 06:56:00
11:16 PM,66.2,60.8,83,30.11,10.0,Calm,Calm,-,N/A,,Scattered Clouds,0,2013-07-19 07:16:00
11:36 PM,66.2,60.8,83,30.11,10.0,Calm,Calm,-,N/A,,Mostly Cloudy,0,2013-07-19 07:36:00
11:56 PM,64.4,60.8,88,30.11,10.0,Calm,Calm,-,N/A,,Mostly Cloudy,0,2013-07-19 07:56:00